Wind_Speed
46 43 41 38 34 32 32 32 30 31 29 29 28 27 31 27 27 23 28 37 38 37 37 43 43 46 42 36 35 37 40 46 46 40 40 38 36 36 37 37 34 31 23
47 43 45 44 41 42 40 38 36 35 36 34 31 34 40 38 31 35 35 38 37 43 45 43 44 47 49 45 42 45 44 44 42 40 37 34 32 38 38 37 32 26 21
48 45 44 46 45 49 47 42 38 32 30 30 31 35 34 32 33 38 28 32 43 48 43 43 45 48 50 52 49 48 47 45 41 40 42 38 36 36 39 34 30 29 27
23 30 38 40 46 47 46 39 31 25 21 22 22 31 29 29 22 24 35 36 30 34 42 43 47 48 51 53 52 50 52 53 49 49 50 47 43 40 39 37 36 34 32
29 24 34 31 33 32 24 30 21 24 31 26 21 20 16 18 12 8 12 22 22 25 30 35 47 52 51 54 54 54 50 47 47 42 43 48 47 45 43 39 39 39 39
18 3 19 24 25 27 62 38 35 36 38 28 23 25 19 18 17 20 26 27 26 34 34 27 34 46 53 54 52 53 51 51 50 47 47 46 47 49 41 41 42 41 42
28 26 30 27 11 33 70 53 67 48 41 50 35 33 27 25 26 30 31 32 29 35 34 29 24 28 42 49 57 52 55 58 60 59 55 52 51 49 44 44 45 44 44
40 54 56 53 46 43 81 75 42 33 40 47 50 35 28 31 30 32 40 38 36 34 35 33 22 20 22 30 44 51 55 53 55 50 52 52 52 50 50 49 49 48 47
43 47 55 64 64 74 61 59 40 38 49 44 47 45 41 34 33 33 37 40 42 39 27 32 23 14 13 14 20 27 34 39 42 43 48 46 47 48 52 52 54 53 54
55 56 54 63 76 55 56 45 58 55 61 49 45 48 41 38 40 33 41 42 44 46 46 33 21 19 23 15 19 25 31 34 34 32 32 40 42 40 46 52 53 49 48
60 60 63 64 67 67 66 56 69 63 46 46 51 58 56 54 47 48 51 52 48 47 52 43 30 39 28 17 30 28 21 29 34 34 34 33 33 32 38 43 46 41 43
65 68 73 76 80 84 77 65 69 70 54 24 36 49 51 55 51 48 45 45 43 46 53 53 43 39 33 41 29 20 24 24 25 28 37 34 30 30 28 31 38 43 46
77 79 77 79 80 89 80 70 79 77 60 44 38 41 45 52 52 54 58 58 55 53 51 54 41 37 38 46 30 35 28 30 25 22 18 18 25 29 31 33 34 37 43
85 87 87 88 86 88 82 79 84 81 80 80 64 55 51 49 48 54 52 55 53 43 51 56 39 42 40 50 35 27 30 37 25 21 21 23 20 25 32 31 34 43 47
82 89 90 89 83 83 81 77 65 73 79 83 82 73 70 63 57 54 52 47 46 48 53 53 42 40 47 51 54 52 37 53 43 42 36 37 42 38 38 28 34 46 42
87 87 88 88 83 78 77 73 71 68 81 83 85 76 68 63 47 45 46 48 51 55 52 54 55 53 61 61 57 50 51 51 48 54 51 46 35 50 47 51 55 62 69
90 93 97 95 91 85 80 72 64 71 83 85 83 83 75 66 60 61 63 59 61 62 64 65 66 65 59 59 58 58 61 61 57 65 46 47 53 60 73 65 64 71 66
80 86 90 91 91 87 84 80 78 72 71 80 84 74 70 66 64 61 62 67 66 64 66 69 65 61 67 74 75 76 72 68 66 63 67 71 69 72 67 70 71 70 74
56 67 74 78 79 82 84 82 77 75 74 78 77 77 72 74 74 71 69 68 68 69 71 72 74 76 78 76 75 76 75 69 66 73 74 77 75 73 78 72 76 74 67
39 49 56 61 69 71 72 73 72 72 70 70 76 77 74 75 75 77 76 76 77 75 78 80 82 85 86 86 81 85 82 80 79 81 88 86 83 84 79 90 85 81 74
46 36 39 43 48 56 64 67 74 75 72 73 76 73 77 75 76 79 81 84 85 88 91 93 93 89 89 90 89 89 92 94 92 90 88 92 88 91 94 94 87 84 79
48 46 43 42 44 48 51 56 60 62 70 80 80 79 79 82 84 86 91 95 95 96 99 99 97 97 96 97 101 98 93 96 97 93 95 99 99 97 99 91 92 84 83
53 50 51 51 51 54 57 61 64 65 67 70 72 79 85 91 89 92 96 97 98 98 98 99 98 98 101 100 104 105 98 102 100 96 98 95 97 101 99 98 95 90 89
62 63 61 59 62 64 64 66 68 74 80 80 78 79 83 87 92 93 95 94 97 97 96 98 100 100 97 95 97 99 102 102 99 95 98 97 99 103 107 94 94 94 88
61 64 65 69 70 71 72 74 75 78 79 79 83 86 89 91 93 94 95 97 98 98 100 99 96 98 98 91 92 90 97 99 104 105 90 89 88 97 98 98 88 69 81
73 74 72 73 75 78 81 82 79 78 78 79 84 88 89 92 94 94 95 96 95 97 98 97 94 97 100 100 99 98 98 99 89 83 76 74 74 73 72 72 69 81 81
Wind_Direction
230 231 233 236 238 242 247 254 258 266 275 275 276 257 257 252 253 270 273 272 263 266 256 248 250 247 246 242 227 227 243 252 264 264 262 268 272 273 272 269 274 273 255
233 236 235 237 243 251 255 261 269 277 278 276 268 251 256 253 255 267 276 277 274 274 262 261 246 245 244 241 235 232 239 246 250 259 265 270 273 273 275 267 265 243 258
236 240 248 252 251 254 258 260 268 266 262 260 264 261 269 269 254 276 274 282 279 271 270 255 247 244 244 242 241 244 246 249 252 256 259 266 266 273 271 265 244 248 266
247 241 245 245 250 253 259 268 248 252 273 281 272 254 259 270 271 274 270 281 297 282 265 254 240 239 241 244 242 246 249 250 256 261 259 261 266 268 266 255 251 255 266
220 220 224 235 260 262 269 251 250 286 292 281 275 247 256 236 244 276 305 319 333 333 297 273 243 237 236 240 246 249 251 253 255 257 260 259 261 266 270 252 249 256 263
188 20 253 240 278 264 265 247 265 277 277 248 241 252 252 239 264 285 292 307 321 322 331 301 260 242 241 238 241 239 243 248 251 252 257 259 259 261 255 246 251 261 265
209 243 256 222 231 196 228 259 268 264 276 261 249 243 248 248 265 278 292 291 314 323 327 324 285 255 245 246 244 247 243 244 248 250 253 256 263 262 253 249 253 263 271
183 198 217 238 205 208 227 240 243 269 279 272 255 252 254 256 264 271 276 287 297 315 334 330 319 268 260 257 255 255 255 257 256 259 259 263 261 262 256 252 257 267 274
210 211 209 216 206 212 222 238 236 260 276 273 255 257 266 262 271 274 275 279 288 304 317 334 346 324 294 281 271 258 257 262 266 267 265 262 258 260 253 252 259 265 271
217 202 210 215 212 219 218 250 242 239 253 264 253 255 254 253 254 263 268 273 281 284 295 308 312 340 344 319 291 272 266 264 264 264 267 261 261 264 258 251 255 261 267
217 219 224 222 215 216 224 231 228 235 255 259 263 253 250 259 267 272 262 267 274 280 283 295 287 310 305 317 331 306 298 271 269 269 264 272 266 265 260 259 258 260 265
224 222 225 226 214 221 226 224 223 228 241 252 276 253 255 256 248 255 258 263 267 274 276 283 287 294 290 307 317 300 314 324 319 288 273 262 272 276 278 275 269 266 268
224 221 226 227 228 224 230 239 236 235 224 234 217 241 243 255 257 254 258 262 264 266 274 276 279 288 294 304 303 310 308 316 310 315 300 274 273 281 284 287 292 301 297
230 233 233 233 238 234 234 245 240 241 233 238 236 241 256 267 265 258 261 262 260 262 273 271 271 283 288 300 303 299 300 315 302 289 299 303 284 289 307 289 290 295 289
232 233 230 238 239 244 246 242 250 245 237 246 249 251 253 266 265 263 263 256 254 268 269 263 265 272 286 292 299 303 293 305 305 297 311 294 301 289 292 288 302 316 307
230 231 235 236 242 247 247 253 249 245 235 243 252 255 256 265 264 257 253 263 274 265 265 271 273 277 286 289 291 296 297 298 299 299 302 304 283 305 305 307 309 308 310
232 235 238 242 245 245 248 247 246 241 243 244 251 256 257 265 260 258 262 264 267 260 266 269 274 276 278 279 288 289 290 292 293 302 297 302 298 300 305 306 305 306 305
234 235 238 240 242 242 240 238 243 243 244 242 249 250 251 255 256 260 260 263 258 259 267 272 274 273 279 280 283 287 292 295 295 292 296 296 297 299 299 299 296 297 303
248 244 239 240 241 243 246 245 247 247 245 244 245 246 247 249 253 256 257 257 257 263 265 267 269 268 275 280 283 284 284 289 290 292 295 297 295 295 295 294 297 296 292
255 253 252 250 247 246 246 246 241 237 238 242 246 248 252 255 257 259 260 261 262 263 260 262 271 275 278 278 280 282 285 283 290 291 292 291 292 293 289 295 291 289 285
260 251 248 249 254 254 245 242 241 240 237 238 241 245 250 250 254 256 256 259 260 262 263 265 268 270 272 275 277 281 282 282 287 290 290 289 291 289 287 288 283 280 276
247 249 252 250 248 246 248 247 248 248 244 245 245 246 247 249 252 255 257 259 261 262 264 267 269 271 273 275 277 282 284 281 286 284 283 284 286 284 284 278 274 272 269
243 246 251 252 251 252 252 247 246 248 249 251 245 249 251 252 254 255 256 259 263 264 266 270 271 273 275 277 277 279 280 281 280 282 281 280 281 280 275 274 274 268 266
248 250 256 254 253 255 254 252 251 250 250 252 253 251 251 253 255 258 261 264 265 267 270 271 274 276 275 275 277 278 279 277 276 278 279 279 275 275 276 272 271 269 269
258 260 260 260 259 260 259 259 258 256 257 257 257 257 258 258 260 261 262 265 267 269 270 272 270 271 271 276 276 276 275 274 277 285 280 277 277 272 267 270 269 260 266
255 256 257 258 259 259 263 265 263 265 266 263 263 262 265 266 267 267 268 269 270 270 270 274 274 275 276 277 276 278 276 277 279 276 276 275 271 268 264 262 257 251 258
Height
10870 10877 10883 10887 10891 10892 10894 10898 10899 10899 10900 10902 10903 10902 10903 10902 10903 10902 10901 10901 10900 10899 10898 10900 10902 10903 10907 10913 10917 10920 10921 10920 10918 10918 10914 10914 10914 10913 10913 10914 10915 10915 10915
10868 10872 10876 10880 10884 10884 10887 10890 10893 10894 10893 10892 10893 10892 10890 10893 10895 10894 10892 10891 10890 10888 10886 10887 10888 10890 10893 10898 10903 10905 10906 10907 10908 10908 10907 10907 10907 10906 10907 10908 10908 10908 10908
10861 10865 10871 10875 10878 10879 10881 10882 10883 10882 10881 10882 10883 10884 10886 10887 10889 10885 10885 10883 10881 10879 10876 10875 10875 10878 10880 10884 10889 10892 10894 10896 10898 10899 10900 10900 10900 10899 10899 10900 10901 10900 10901
10859 10858 10863 10867 10867 10869 10874 10877 10877 10879 10879 10877 10876 10878 10879 10880 10881 10880 10877 10875 10869 10867 10863 10862 10862 10866 10869 10870 10874 10878 10882 10884 10886 10889 10889 10891 10891 10891 10890 10892 10892 10893 10892
10837 10841 10846 10852 10860 10864 10869 10872 10871 10871 10875 10873 10871 10872 10872 10873 10874 10870 10867 10866 10861 10859 10855 10850 10850 10853 10857 10859 10863 10865 10869 10872 10875 10876 10877 10879 10882 10882 10882 10882 10883 10883 10882
10832 10847 10851 10858 10866 10867 10860 10858 10861 10859 10864 10870 10868 10866 10865 10868 10868 10866 10861 10860 10856 10853 10847 10842 10839 10840 10844 10850 10853 10856 10858 10860 10862 10865 10866 10869 10870 10871 10872 10872 10873 10873 10873
10832 10847 10856 10864 10856 10857 10825 10841 10858 10851 10853 10864 10863 10857 10856 10857 10861 10859 10855 10854 10851 10848 10840 10836 10831 10829 10832 10837 10842 10845 10848 10850 10851 10854 10855 10857 10857 10860 10861 10862 10862 10862 10862
10814 10815 10835 10844 10859 10849 10841 10851 10848 10849 10845 10856 10856 10851 10846 10849 10850 10851 10848 10848 10847 10844 10837 10831 10828 10825 10825 10829 10832 10834 10836 10838 10839 10841 10843 10845 10844 10847 10849 10849 10851 10852 10852
10789 10794 10802 10807 10818 10823 10824 10826 10836 10848 10846 10845 10842 10841 10838 10837 10839 10841 10839 10838 10839 10840 10837 10833 10827 10825 10824 10824 10825 10826 10827 10830 10829 10829 10831 10831 10832 10834 10836 10837 10839 10840 10840
10773 10778 10780 10781 10797 10808 10812 10818 10831 10841 10841 10835 10830 10828 10826 10827 10828 10827 10827 10827 10830 10832 10832 10832 10829 10825 10825 10822 10820 10819 10820 10820 10818 10819 10819 10820 10820 10821 10824 10825 10826 10828 10828
10756 10759 10766 10774 10782 10789 10796 10807 10819 10825 10827 10827 10819 10816 10816 10819 10820 10816 10814 10815 10820 10822 10822 10824 10823 10821 10820 10818 10815 10811 10809 10809 10810 10809 10810 10810 10810 10810 10811 10813 10814 10816 10817
10742 10746 10750 10759 10767 10772 10778 10788 10799 10800 10821 10819 10800 10801 10804 10804 10805 10805 10803 10803 10806 10809 10810 10812 10813 10812 10812 10811 10809 10806 10803 10801 10801 10798 10799 10800 10801 10801 10802 10802 10803 10804 10804
10732 10735 10741 10746 10752 10757 10764 10773 10778 10788 10801 10800 10775 10776 10781 10784 10789 10791 10791 10791 10794 10797 10798 10799 10801 10799 10801 10800 10799 10797 10797 10794 10791 10789 10788 10788 10792 10794 10794 10794 10794 10793 10792
10725 10729 10731 10736 10742 10747 10755 10765 10769 10772 10778 10777 10771 10766 10771 10773 10778 10777 10779 10780 10782 10784 10785 10785 10787 10788 10787 10788 10789 10787 10784 10787 10785 10785 10783 10783 10784 10783 10783 10782 10783 10783 10779
10711 10711 10718 10723 10733 10739 10745 10753 10754 10754 10759 10756 10754 10756 10758 10761 10763 10766 10766 10766 10769 10769 10771 10771 10773 10775 10773 10774 10773 10772 10771 10771 10775 10773 10772 10773 10771 10771 10769 10767 10768 10769 10767
10695 10697 10699 10705 10710 10717 10723 10729 10733 10737 10741 10742 10738 10742 10743 10748 10749 10751 10754 10755 10755 10754 10756 10758 10759 10760 10760 10760 10759 10757 10757 10757 10759 10760 10758 10757 10756 10755 10752 10751 10746 10744 10743
10682 10688 10690 10692 10696 10701 10704 10711 10715 10719 10718 10726 10725 10727 10730 10733 10735 10737 10739 10740 10740 10741 10743 10743 10745 10746 10746 10744 10743 10743 10742 10743 10742 10741 10740 10741 10740 10737 10734 10728 10725 10726 10725
10665 10671 10677 10680 10683 10687 10691 10697 10703 10702 10703 10709 10710 10713 10714 10716 10717 10718 10720 10723 10724 10724 10726 10728 10729 10728 10727 10725 10725 10723 10723 10722 10724 10722 10721 10723 10718 10718 10715 10712 10707 10704 10700
10645 10651 10657 10661 10664 10668 10672 10679 10682 10684 10686 10689 10689 10691 10692 10696 10696 10701 10703 10704 10704 10705 10709 10710 10708 10709 10706 10705 10704 10703 10703 10705 10704 10704 10701 10701 10698 10694 10692 10689 10685 10683 10679
10629 10632 10636 10640 10646 10649 10652 10657 10660 10664 10667 10669 10668 10672 10672 10677 10677 10679 10681 10683 10684 10684 10685 10686 10686 10685 10684 10684 10681 10681 10679 10680 10682 10682 10678 10674 10672 10671 10668 10665 10661 10660 10659
10617 10619 10621 10623 10626 10632 10634 10637 10642 10646 10649 10648 10648 10652 10652 10656 10657 10658 10660 10660 10661 10662 10661 10662 10661 10661 10658 10656 10656 10655 10653 10653 10654 10653 10650 10646 10644 10641 10637 10635 10634 10628 10625
10603 10605 10607 10609 10611 10613 10614 10617 10620 10624 10629 10628 10631 10629 10634 10634 10637 10636 10635 10637 10637 10636 10635 10637 10637 10636 10634 10634 10632 10629 10626 10625 10626 10624 10621 10618 10614 10609 10608 10602 10601 10601 10599
10590 10591 10592 10593 10594 10596 10598 10600 10601 10602 10604 10606 10609 10607 10610 10612 10612 10611 10610 10611 10612 10612 10609 10607 10608 10607 10608 10607 10604 10602 10598 10598 10596 10595 10592 10587 10585 10578 10572 10569 10567 10566 10567
10574 10576 10577 10578 10578 10579 10579 10580 10581 10583 10583 10583 10585 10585 10584 10585 10586 10586 10585 10585 10584 10583 10582 10580 10579 10579 10578 10577 10575 10576 10570 10565 10561 10561 10560 10555 10549 10538 10532 10539 10532 10533 10536
10560 10559 10558 10556 10557 10556 10557 10558 10558 10559 10559 10559 10560 10560 10559 10560 10560 10560 10558 10558 10557 10554 10552 10551 10550 10550 10546 10544 10543 10540 10533 10533 10531 10523 10522 10515 10517 10514 10510 10507 10510 10506 10503
10539 10537 10537 10536 10535 10534 10531 10530 10531 10532 10531 10530 10532 10534 10532 10528 10527 10528 10526 10525 10523 10521 10518 10518 10517 10513 10510 10510 10507 10505 10491 10493 10498 10487 10486 10484 10482 10482 10482 10480 10482 10484 10484